sat.trackr.live / text

‹ back to catalog

STARLINK-5580

NORAD 55748 · 2023-028H

PAYLOAD ACTIVE UNKNOWN

§ Identity

Operator
Country
US
Launch date
2023-03-03
Launch site
AFWTR
Launch vehicle
Mass (kg)
RCS (m²)

Purposes: comms

External: N2YO · Heavens-Above · Gunter

§ Orbital elements

Epoch: 2026-09-20T22:00:03.000096Z

Period
95.67 min
Inclination
69.9999°
Eccentricity
0.0004037
Mean motion
15.05162558 rev/d
Perigee alt
548.2 km
Apogee alt
553.8 km
Semi-major
6,929.1 km
B*
4.6081e-3
RAAN
112.2098°
Arg perigee
315.2038°
Mean anomaly
49.5772°
Rev number
576

§ Raw data

STARLINK-55801 55748U 23028H   26263.91670139  .00066337  00000+0  46081-2 0  99942 55748  69.9999 112.2098 0004037 315.2038  49.5772 15.05162558  5761

JSON: /api/v1/satellites/55748 · /tle

For live sub-satellite position, see the globe view (requires WebGL).

§ Visibility from observer

Set your observer location to see the next 7 days of passes ≥ 10°. The values pass through the URL so the page stays shareable.

No JS? Fill the form by hand. The geolocation button needs JavaScript.